Latest Coastal Weather Observations for Hamilton Island

IDQ60701

Issued at 10:31 am EST Wednesday 10 February 2016 (issued every 10 minutes, with the page automatically refreshed every 10 minutes)

About coastal observations | Map of coastal stations | Coastal observations for QLD | Marine services | Other Formats
Station Details ID: 033106 Name: HAMILTON ISLAND AIRPORT Lat: -20.37 Lon: 148.95 Height: 58.66 m
Data from the previous 72 hours. | See also: Recent months at Hamilton Island
Date/Time
EST
Temp

°C
Wind Pressure Rain
since 9am
mm
Weather Cloud Vis
km
Sea
Height
m
Swell
Dir
 
Speed
knots
Gust
knots
hPa Trend Height
m
Period
s
Dir
10/10:30am 28.0 SE 22 25 1009.9 - 0.0 - Partly cloudy 10 - - - -
10/10:00am 27.8 SE 22 26 1009.9 - 0.0 - Partly cloudy 10 - - - -
10/09:30am 28.4 SE 23 28 1009.8 - 0.0 - - 10 - - - -
10/09:00am 28.2 SE 23 26 1009.5 - 0.2 - Cloudy 10 - - - -
10/08:30am 27.8 SE 22 27 1009.8 - 0.2 - Partly cloudy 10 - - - -
10/08:00am 27.6 SE 24 29 1009.5 - 0.2 - Partly cloudy 10 - - - -
10/07:30am 27.8 SE 25 31 1009.0 - 0.2 - Partly cloudy 10 - - - -
10/07:00am 27.5 SE 23 29 1008.9 - 0.2 - Partly cloudy 10 - - - -
10/06:30am 26.5 SE 23 26 1008.8 - 0.2 - Partly cloudy 10 - - - -
10/06:00am 26.6 SE 24 27 1008.0 - 0.2 - Cloudy 10 - - - -
10/05:30am 26.6 SE 26 30 1007.9 - 0.2 - Partly cloudy 10 - - - -
10/05:00am 26.7 SE 24 31 1007.6 - 0.2 - Partly cloudy 10 - - - -
10/04:30am 26.7 SE 25 32 1007.5 - 0.2 - Partly cloudy 10 - - - -
10/04:00am 26.7 SE 25 28 1007.3 - 0.2 - Partly cloudy 10 - - - -
10/03:30am 26.4 SE 26 30 1007.4 - 0.2 - Partly cloudy 10 - - - -
10/03:00am 26.6 SE 25 30 1007.2 - 0.2 - Cloudy 10 - - - -
10/02:30am 26.8 SE 24 28 1007.7 - 0.2 - Partly cloudy 10 - - - -
10/02:00am 26.8 SE 24 29 1007.9 - 0.2 - Partly cloudy 10 - - - -
10/01:30am 26.6 SE 25 28 1008.1 - 0.2 - Partly cloudy 10 - - - -
10/01:00am 26.8 SE 24 29 1008.6 - 0.2 - Partly cloudy 10 - - - -
10/12:30am 26.9 SE 23 28 1009.1 - 0.2 - Partly cloudy 10 - - - -
10/12:00am 27.1 SE 25 31 1009.1 - 0.2 - Cloudy 10 - - - -
 
Date/Time
EST
Temp

°C
Wind Pressure Rain
since 9am
mm
Weather Cloud Vis
km
Sea
Height
m
Swell
Dir
 
Speed
knots
Gust
knots
hPa Trend Height
m
Period
s
Dir
09/11:30pm 27.1 SE 26 32 1009.7 - 0.2 - Partly cloudy 10 - - - -
09/11:00pm 27.2 SE 26 31 1010.1 - 0.2 - Partly cloudy 10 - - - -
09/10:30pm 27.1 SE 26 30 1010.2 - 0.2 - Partly cloudy 10 - - - -
09/10:15pm 26.9 SE 26 36 1010.3 - 0.2 - Partly cloudy 10 - - - -
09/10:00pm 27.3 SE 26 31 1010.3 - 0.2 - Partly cloudy 10 - - - -
09/09:30pm 27.1 SE 22 28 1010.4 - 0.2 - Partly cloudy 10 - - - -
09/09:10pm 26.4 SE 21 27 1010.4 - 0.2 - Partly cloudy 10 - - - -
09/09:00pm 26.0 SE 24 30 1009.9 - 0.2 - Cloudy 7 - - - -
09/08:50pm 24.9 ESE 24 36 1010.4 - 0.2 - Partly cloudy 6 - - - -
09/08:44pm 26.3 ESE 22 32 1010.3 - 0.2 - Partly cloudy 10 - - - -
09/08:30pm 27.1 SE 25 29 1010.2 - 0.2 - Partly cloudy 10 - - - -
09/08:00pm 27.5 ESE 25 29 1010.1 - 0.2 - Partly cloudy 10 - - - -
09/07:30pm 27.5 ESE 25 30 1009.8 - 0.2 - Partly cloudy 10 - - - -
09/07:00pm 27.6 SE 24 28 1009.8 - 0.2 - Partly cloudy 10 - - - -
09/06:30pm 27.5 SE 24 28 1009.9 - 0.2 - Partly cloudy 10 - - - -
09/06:00pm 27.7 SE 25 29 1009.0 - 0.2 - Cloudy 10 - - - -
09/05:30pm 27.8 SE 26 30 1009.1 - 0.2 - Partly cloudy 10 - - - -
09/05:00pm 27.8 SE 26 31 1008.8 - 0.2 - Partly cloudy 10 - - - -
09/04:30pm 27.7 SE 27 32 1008.5 - 0.2 - Partly cloudy 10 - - - -
09/04:00pm 28.2 SE 26 32 1008.5 - 0.2 - Partly cloudy 10 - - - -
09/03:30pm 27.2 SSE 29 35 1008.3 - 0.2 - Partly cloudy 10 - - - -
09/03:00pm 28.5 SE 26 32 1008.3 - 0.2 - Cloudy 10 - - - -
09/02:30pm 28.4 SE 26 31 1008.9 - 0.2 - Partly cloudy 10 - - - -
09/02:00pm 28.7 SE 26 32 1009.0 - 0.2 - Partly cloudy 10 - - - -
09/01:35pm 28.7 SE 26 30 1009.2 - 0.2 - Partly cloudy 10 - - - -
09/01:30pm 28.2 SSE 19 28 1009.3 - 0.2 - Partly cloudy 10 - - - -
09/01:00pm 28.0 SSE 23 27 1009.7 - 0.2 - Partly cloudy 10 - - - -
09/12:30pm 29.7 SE 22 27 1009.9 - 0.2 - Partly cloudy 10 - - - -
09/12:00pm 29.6 SE 25 29 1009.7 - 0.2 - Mostly cloudy 10 - - - -
09/11:30am 29.1 SE 25 31 1010.4 - 0.2 - Partly cloudy 10 - - - -
09/11:00am 29.0 SE 26 29 1010.5 - 0.2 - Partly cloudy 10 - - - -
09/10:30am 28.3 SE 25 29 1010.7 - 0.2 - Partly cloudy 10 - - - -
09/10:00am 28.9 SE 25 29 1010.9 - 0.2 - Partly cloudy 10 - - - -
09/09:30am 28.6 SE 24 28 1010.9 - 0.0 - Cloudy 10 - - - -
09/09:00am 28.0 SE 24 29 1010.6 - 0.2 - Cloudy 10 - - - -
09/08:30am 27.9 SE 23 28 1010.8 - 0.2 - Cloudy 10 - - - -
09/08:00am 27.8 SE 24 28 1010.6 - 0.2 - Partly cloudy 10 - - - -
09/07:30am 27.9 SE 25 30 1010.4 - 0.2 - Partly cloudy 10 - - - -
09/07:00am 27.2 SE 24 28 1010.3 - 0.2 - Partly cloudy 10 - - - -
09/06:30am 27.1 SE 24 27 1009.9 - 0.2 - Partly cloudy 10 - - - -
09/06:00am 27.1 SE 23 28 1009.3 - 0.2 - Cloudy 10 - - - -
09/05:30am 26.9 SE 22 26 1009.4 - 0.2 - Partly cloudy 10 - - - -
09/05:00am 26.7 SE 23 25 1008.8 - 0.2 - Partly cloudy 10 - - - -
09/04:30am 26.8 SE 24 28 1008.6 - 0.2 - Partly cloudy 10 - - - -
09/04:00am 26.9 SE 24 27 1008.7 - 0.2 - Partly cloudy 10 - - - -
09/03:30am 26.9 SE 26 30 1008.4 - 0.2 - - 10 - - - -
09/03:00am 26.9 SE 26 29 1008.0 - 0.2 - Mostly clear 10 - - - -
09/02:30am 26.7 SE 26 30 1008.6 - 0.2 - Partly cloudy 10 - - - -
09/02:00am 26.8 SE 27 31 1009.0 - 0.2 - Partly cloudy 10 - - - -
09/01:38am 26.6 SE 24 30 1009.2 - 0.2 - Partly cloudy 10 - - - -
09/01:30am 26.4 SE 23 27 1009.3 - 0.2 - Partly cloudy 10 - - - -
09/01:00am 26.4 ESE 25 30 1009.6 - 0.2 - Partly cloudy 10 - - - -
09/12:30am 26.6 ESE 26 30 1009.7 - 0.2 - Partly cloudy 10 - - - -
09/12:00am 26.5 ESE 23 28 1009.7 - 0.2 - Cloudy 10 - - - -
 
Date/Time
EST
Temp

°C
Wind Pressure Rain
since 9am
mm
Weather Cloud Vis
km
Sea
Height
m
Swell
Dir
 
Speed
knots
Gust
knots
hPa Trend Height
m
Period
s
Dir
08/11:30pm 26.4 ESE 25 31 1010.5 - 0.2 - Partly cloudy 10 - - - -
08/11:21pm 26.3 ESE 24 29 1010.6 - 0.2 - Partly cloudy 10 - - - -
08/11:05pm 25.9 SE 23 30 1010.7 - 0.2 - Partly cloudy 6 - - - -
08/11:03pm 26.0 SE 22 30 1010.8 - 0.2 - Partly cloudy 8 - - - -
08/11:00pm 26.5 SE 21 26 1010.8 - 0.2 - Partly cloudy 10 - - - -
08/10:51pm 26.5 ESE 22 26 1011.0 - 0.2 - Partly cloudy 10 - - - -
08/10:38pm 26.5 SE 24 29 1011.0 - 0.2 - Partly cloudy 10 - - - -
08/10:30pm 26.2 SE 25 29 1010.9 - 0.2 - Partly cloudy 9 - - - -
08/10:22pm 25.8 SE 25 33 1011.0 - 0.2 - Partly cloudy 6 - - - -
08/10:13pm 26.7 SE 22 30 1010.8 - 0.0 - Partly cloudy 10 - - - -
08/10:00pm 26.9 SE 25 34 1010.7 - 0.0 - Partly cloudy 10 - - - -
08/09:30pm 27.0 SE 26 30 1010.4 - 0.0 - Partly cloudy 10 - - - -
08/09:00pm 26.8 SE 24 28 1009.6 - 0.0 - Cloudy 10 - - - -
08/08:30pm 26.7 SE 26 29 1010.2 - 0.0 - Partly cloudy 10 - - - -
08/08:00pm 26.6 ESE 26 29 1010.1 - 0.0 - Partly cloudy 10 - - - -
08/07:35pm 26.6 SE 21 25 1010.1 - 0.0 - Partly cloudy 10 - - - -
08/07:30pm 26.5 SE 23 27 1010.1 - 0.0 - Partly cloudy 10 - - - -
08/07:00pm 26.3 ESE 23 26 1009.8 - 0.0 - Partly cloudy 10 - - - -
08/06:53pm 26.3 ESE 23 27 1009.7 - 0.0 - Partly cloudy 10 - - - -
08/06:32pm 26.8 ESE 22 26 1009.3 - 0.0 - Partly cloudy 10 - - - -
08/06:30pm 26.9 SE 22 26 1009.3 - 0.0 - Partly cloudy 10 - - - -
08/06:01pm 26.9 SE 23 27 1009.5 - 0.0 - Partly cloudy 10 - - - -
08/06:00pm 27.0 SE 23 27 1009.1 - 0.0 - Cloudy 10 - - - -
08/05:44pm 26.9 SE 20 26 1009.4 - 0.0 - Partly cloudy 10 - - - -
08/05:30pm 26.7 SE 19 23 1009.1 - 0.0 - Partly cloudy 10 - - - -
08/05:00pm 27.0 SE 22 27 1009.0 - 0.0 - Partly cloudy 10 - - - -
08/04:30pm 27.4 SE 21 25 1008.4 - 0.0 - Partly cloudy 10 - - - -
08/04:00pm 27.8 SE 26 30 1008.2 - 0.0 - Partly cloudy 10 - - - -
08/03:30pm 27.8 SE 24 28 1008.2 - 0.0 - Partly cloudy 10 - - - -
08/03:02pm 27.5 SE 25 29 1008.1 - 0.0 - Partly cloudy 10 - - - -
08/03:00pm 27.7 SE 25 28 1007.7 - 0.0 - Cloudy 10 - - - -
08/02:30pm 27.5 SE 23 27 1008.4 - 0.0 - Partly cloudy 10 - - - -
08/02:00pm 27.4 SE 25 32 1008.8 - 0.0 - Partly cloudy 10 - - - -
08/01:30pm 27.3 SE 23 27 1009.0 - 0.0 - Partly cloudy 10 - - - -
08/01:00pm 27.6 SE 23 27 1009.2 - 0.0 - Partly cloudy 10 - - - -
08/12:30pm 27.3 SSE 26 31 1009.5 - 0.0 - Partly cloudy 10 - - - -
08/12:00pm 27.1 SSE 24 27 1009.7 - 0.0 - Cloudy 10 - - - -
08/11:30am 26.8 SSE 24 29 1010.1 - 0.0 - Partly cloudy 10 - - - -
08/11:00am 27.1 SSE 25 29 1010.4 - 0.0 - Partly cloudy 10 - - - -
08/10:30am 26.9 SSE 25 30 1010.7 - 0.0 - Partly cloudy 10 - - - -
08/10:00am 26.2 SSE 24 29 1010.7 - 0.0 - Partly cloudy 10 - - - -
08/09:30am 26.2 SSE 26 31 1010.7 - 0.0 - Partly cloudy 10 - - - -
08/09:00am 26.6 SE 23 27 1010.2 - 22.0 - Cloudy 10 - - - -
08/08:50am 26.4 SSE 24 28 1010.5 - 22.0 - Partly cloudy 10 - - - -
08/08:30am 26.5 SE 23 27 1010.5 - 22.0 - Partly cloudy 10 - - - -
08/08:25am 26.5 SE 23 27 1010.4 - 22.0 - Partly cloudy 10 - - - -
08/08:00am 26.1 SE 25 31 1010.0 - 22.0 - Partly cloudy 10 - - - -
08/07:40am 25.9 SE 26 30 1010.0 - 22.0 - Partly cloudy 10 - - - -
08/07:30am 26.0 SE 28 33 1009.7 - 22.0 - Partly cloudy 6 - - - -
08/07:04am 26.4 SE 27 33 1009.7 - 21.6 - Partly cloudy 6 - - - -
08/07:00am 27.0 SE 26 31 1009.7 - 21.4 - Cloudy 8 - - - -
08/06:30am 26.9 SSE 29 33 1009.1 - 21.4 - Partly cloudy 10 - - - -
08/06:00am 26.9 SSE 27 31 1008.2 - 21.4 - Mostly cloudy 10 - - - -
08/05:30am 26.8 SE 25 32 1008.8 - 21.4 - Partly cloudy 10 - - - -
08/05:00am 26.7 SSE 28 34 1008.3 - 21.4 - Partly cloudy 10 - - - -
08/04:30am 26.8 SSE 30 34 1008.1 - 21.4 - Partly cloudy 10 - - - -
08/04:00am 26.8 SSE 28 32 1008.0 - 21.4 - Partly cloudy 10 - - - -
08/03:30am 26.9 SSE 29 36 1008.2 - 21.4 - Cloudy 10 - - - -
08/03:00am 26.8 SSE 30 36 1007.5 - 21.4 - Cloudy 10 - - - -
08/02:30am 26.8 SSE 29 33 1008.0 - 21.4 - Partly cloudy 10 - - - -
08/02:18am 26.8 SSE 28 33 1008.1 - 21.4 - Partly cloudy 10 - - - -
08/02:00am 26.3 SSE 29 34 1008.3 - 21.4 - Partly cloudy 7 - - - -
08/01:55am 26.3 SSE 28 34 1008.2 - 21.4 - Partly cloudy 6 - - - -
08/01:30am 26.3 SSE 28 34 1008.1 - 21.2 - Partly cloudy 8 - - - -
08/01:21am 26.2 SSE 28 33 1008.1 - 21.2 - Partly cloudy 10 - - - -
08/01:06am 26.5 SSE 25 31 1008.6 - 21.2 - Partly cloudy 6 - - - -
08/01:00am 26.4 SSE 27 31 1009.0 - 21.2 - Partly cloudy 10 - - - -
08/12:48am 26.5 SSE 27 31 1009.0 - 21.2 - Partly cloudy 6 - - - -
08/12:30am 26.5 SSE 25 30 1009.0 - 21.2 - Partly cloudy 10 - - - -
08/12:07am 26.4 SSE 22 26 1009.1 - 21.0 - Partly cloudy 10 - - - -
08/12:00am 26.2 SE 23 27 1008.7 - 21.0 - Cloudy 8 - - - -
 
Date/Time
EST
Temp

°C
Wind Pressure Rain
since 9am
mm
Weather Cloud Vis
km
Sea
Height
m
Swell
Dir
 
Speed
knots
Gust
knots
hPa Trend Height
m
Period
s
Dir
07/11:35pm 26.1 SE 27 31 1009.2 - 20.6 - Partly cloudy 8 - - - -
07/11:30pm 25.9 SE 26 31 1009.2 - 20.6 - Partly cloudy 7 - - - -
07/11:17pm 25.9 SE 27 32 1009.1 - 20.2 - Partly cloudy 5 - - - -
07/11:00pm 26.0 SE 32 37 1009.0 - 19.0 - Partly cloudy 0.9 - - - -
07/10:30pm 26.2 SSE 28 34 1009.3 - 6.2 - Partly cloudy 4 - - - -
07/10:16pm 26.4 SSE 25 30 1009.2 - 4.0 - Partly cloudy 4 - - - -
07/10:00pm 25.9 S 21 26 1009.5 - 2.8 - Partly cloudy 6 - - - -
07/09:30pm 26.7 S 20 28 1008.9 - 2.2 - Partly cloudy 5 - - - -
07/09:24pm 26.5 S 20 29 1008.9 - 2.2 - Partly cloudy 6 - - - -
07/09:06pm 26.8 SSE 24 29 1008.8 - 2.0 - Cloudy 10 - - - -
07/09:00pm 27.0 SSE 24 29 1008.4 - 2.0 - Mostly cloudy 9 - - - -
07/08:33pm 26.7 SSE 21 26 1008.9 - 1.4 - Partly cloudy 6 - - - -
07/08:30pm 26.6 SSE 22 27 1009.0 - 1.4 - Partly cloudy 9 - - - -
07/08:00pm 26.5 SSE 22 28 1008.5 - 1.4 - Partly cloudy 8 - - - -
07/07:52pm 26.5 S 20 26 1008.6 - 1.4 - Cloudy 9 - - - -
07/07:30pm 26.7 S 20 27 1008.4 - 1.2 - Cloudy 7 - - - -
07/07:00pm 26.7 S 21 26 1008.1 - 0.4 - Cloudy 6 - - - -
07/06:30pm 26.8 S 20 27 1007.7 - 0.2 - Partly cloudy 4 - - - -
07/06:21pm 26.8 S 19 26 1007.7 - 0.2 - Partly cloudy 6 - - - -
07/06:14pm 26.8 S 19 26 1007.7 - 0.2 - Partly cloudy 10 - - - -
07/06:00pm 26.7 SSE 18 25 1007.2 - 0.2 - Cloudy 5 - - - -
07/05:49pm 26.8 SSE 22 27 1007.2 - 0.2 - Partly cloudy 6 - - - -
07/05:30pm 27.2 SSE 20 26 1006.8 - 0.2 - Partly cloudy 9 - - - -
07/05:25pm 27.0 SSE 21 27 1006.7 - 0.2 - Partly cloudy 10 - - - -
07/05:08pm 26.9 SSE 20 25 1006.9 - 0.2 - Partly cloudy 6 - - - -
07/05:00pm 27.2 SSE 20 25 1007.0 - 0.2 - Partly cloudy 10 - - - -
07/04:30pm 26.9 SSE 22 28 1006.1 - 0.2 - Partly cloudy 10 - - - -
07/04:21pm 27.0 SSE 22 27 1006.1 - 0.2 - Partly cloudy 10 - - - -
07/04:04pm 27.0 SSE 21 28 1006.4 - 0.2 - Partly cloudy 6 - - - -
07/04:00pm 27.1 SSE 20 28 1006.4 - 0.2 - Partly cloudy 10 - - - -
07/03:30pm 27.1 SSE 20 28 1006.2 - 0.2 - Partly cloudy 10 - - - -
07/03:10pm 27.3 SSE 20 26 1006.6 - 0.2 - Cloudy 10 - - - -
07/03:00pm 27.1 SSE 19 25 1006.4 - 0.2 - Cloudy 6 - - - -
07/02:59pm 27.1 SSE 19 25 1006.7 - 0.2 - Partly cloudy 6 - - - -
07/02:30pm 27.5 S 19 27 1006.7 - 0.2 - Cloudy 10 - - - -
07/02:15pm 27.8 S 15 25 1006.6 - 0.2 - Cloudy 10 - - - -
07/02:00pm 27.9 S 18 25 1006.8 - 0.2 - Cloudy 10 - - - -
07/01:30pm 28.7 SSE 18 25 1006.9 - 0.2 - Cloudy 10 - - - -
07/01:08pm 28.9 SSE 15 20 1007.1 - 0.2 - Partly cloudy 10 - - - -
07/01:00pm 28.8 SSE 14 20 1007.1 - 0.2 - Partly cloudy 10 - - - -
07/12:58pm 29.4 S 13 20 1007.2 - 0.2 - Partly cloudy 10 - - - -
07/12:30pm 29.4 SSE 14 18 1007.6 - 0.2 - Partly cloudy 10 - - - -
07/12:00pm 28.7 SSE 15 19 1007.6 - 0.2 - Mostly cloudy 10 - - - -
07/11:30am 28.3 SSE 14 20 1008.3 - 0.0 - Partly cloudy 10 - - - -
07/11:00am 27.8 S 12 16 1008.4 - 0.0 - Partly cloudy 10 - - - -

Other Formats:

Comma delimited format used in spreadsheet applications
http://www.bom.gov.au/fwo/IDQ60701/IDQ60701.94368.axf

JavaScript Object Notation format (JSON) in row-major order
http://www.bom.gov.au/fwo/IDQ60701/IDQ60701.94368.json